sat.trackr.live / text

‹ back to catalog

ZHONGXING-2A

NORAD 38352 · 2012-028A

PAYLOAD ACTIVE UNKNOWN

§ Identity

Operator
Country
PRC
Launch date
2012-05-26
Launch site
XICLF
Launch vehicle
Mass (kg)
RCS (m²)
19.95

Purposes: comms

External: N2YO · Heavens-Above · Gunter

§ Orbital elements

Epoch: 2026-09-19T21:02:34.739808Z

Period
1,436.12 min
Inclination
1.6922°
Eccentricity
0.0001113
Mean motion
1.00269900 rev/d
Perigee alt
35,782.4 km
Apogee alt
35,791.8 km
Semi-major
42,165.3 km
B*
0.0000e+0
RAAN
82.5308°
Arg perigee
137.5828°
Mean anomaly
192.5760°
Rev number
5,224

§ Raw data

ZHONGXING-2A1 38352U 12028A   26262.87679097 -.00000296  00000+0  00000+0 0  99912 38352   1.6922  82.5308 0001113 137.5828 192.5760  1.00269900 52249

JSON: /api/v1/satellites/38352 · /tle

For live sub-satellite position, see the globe view (requires WebGL).

§ Visibility from observer

Set your observer location to see the next 7 days of passes ≥ 10°. The values pass through the URL so the page stays shareable.

No JS? Fill the form by hand. The geolocation button needs JavaScript.